{"data":{"norad_id":61939,"intl_designator":"2024-209A","name":"STARLINK-11407 [DTC]","alt_names":[],"object_type":"PAYLOAD","status":"ACTIVE","operator":null,"country":"US","launch_date":"2024-11-14","launch_site_code":"AFWTR","launch_vehicle":null,"mission":null,"orbit_class":"UNKNOWN","rcs_meters":null,"size_class":null,"mass_kg":null,"dimensions":null,"purposes":["comms"],"wikipedia_slug":null,"has_3d_model":false,"image_url":null,"decayed_at":null,"tle_current":{"epoch":"2026-05-24T23:34:56.974368Z","epoch_age_seconds":73639,"freshness":"FRESH","line1":"1 61939U 24209A   26144.98260387  .00213625  00000+0  17188-2 0  9990","line2":"2 61939  53.1580 354.9432 0000812  63.7787 296.3314 15.69770202 88723","mean_motion":15.69770202,"eccentricity":8.12e-5,"inclination_deg":53.158,"raan_deg":354.9432,"arg_perigee_deg":63.7787,"mean_anomaly_deg":296.3314,"bstar":0.0017188,"rev_number":8872,"period_min":91.733172037878,"perigee_km":359.0073802974,"apogee_km":360.10158139389,"semimajor_km":6737.6914808456,"source":"CELESTRAK","updated_at":"2026-05-25T13:38:19.485699Z"}}}